User: anonymous   Login
Location: Unspecified
(0.0000°N, 0.0000°E)
Time: 07:18:48
(UTC+00:00)
Language:

N. Korean satellite - Orbit

View from above orbital plane
View from above orbital plane
View from above satellite
View from above satellite

Ground track
Ground track

The orbit data is extracted from the following two-line orbital elements,

1 39026U 12072A   21130.94753716  .00001557  00000-0  55061-4 0  9990
2 39026  97.2437 124.7327 0036515 155.3554 204.9442 15.30043545467291
Epoch (UTC): 10 May 2021 22:44:27
Eccentricity: 0.0036515
inclination: 97.2437°
perigee height: 450 km
apogee height: 501 km
right ascension of ascending node: 124.7327°
argument of perigee: 155.3554°
revolutions per day: 15.30043545
mean anomaly at epoch: 204.9442°
orbit number at epoch: 46729

The dashed part of the orbit path shows where the satellite is in the earth's shadow,  

DLR